Location: Yamada Observatory
(36.7980°N, 119.2990°W)
Time: 03:56:51
(UTC-07:00)

ISS - Visible Passes

Search period start: 16 July 2018 00:00
Search period end: 26 July 2018 00:00
Orbit: 402 x 408 km, 51.6° (Epoch: 16 July)

Date Brightness Start Highest point End Pass type
(mag) Time Alt. Az. Time Alt. Az. Time Alt. Az.
16 Jul -0.2 01:15:02 10° N 01:15:02 10° N 01:15:07 10° N visible
16 Jul -0.4 04:28:28 10° N 04:29:35 11° NNE 04:30:43 10° NE visible
17 Jul -1.6 05:11:33 10° NNW 05:14:31 30° NNE 05:17:28 10° E visible
18 Jul -0.8 04:19:50 10° NNW 04:22:16 19° NNE 04:24:42 10° ENE visible
18 Jul -2.1 20:58:58 10° SSE 21:00:54 15° SE 21:02:51 10° E visible
18 Jul -2.8 22:33:57 10° WSW 22:37:06 45° NW 22:40:16 10° NE visible
19 Jul -0.2 00:13:52 10° NNW 00:14:16 10° NNW 00:14:40 10° NNW visible
19 Jul -0.4 03:28:19 10° N 03:29:55 13° NNE 03:31:31 10° NE visible
19 Jul -3.6 05:03:36 10° NW 05:06:54 75° NE 05:10:10 10° SE visible
19 Jul -4.0 21:41:43 10° SW 21:44:59 87° SE 21:48:16 10° NE visible
19 Jul -0.5 23:19:58 10° WNW 23:21:51 14° NNW 23:23:44 10° N visible
20 Jul -2.2 04:11:39 10° NW 04:14:44 37° NE 04:17:49 10° ESE visible
20 Jul -3.4 20:49:52 10° SSW 20:52:56 39° SE 20:56:01 10° ENE visible
20 Jul -1.1 22:26:55 10° W 22:29:31 21° NNW 22:32:08 10° NNE visible
21 Jul -1.2 03:19:49 10° NNW 03:22:29 22° NNE 03:25:08 10° E visible
21 Jul -3.3 04:55:58 10° WNW 04:59:03 37° SW 05:02:06 10° SSE visible
21 Jul -2.1 21:34:12 10° WSW 21:37:14 36° NW 21:40:18 10° NE visible
22 Jul -0.6 02:28:11 10° NNW 02:30:08 15° NNE 02:32:04 10° ENE visible
22 Jul -4.0 04:03:41 10° NW 04:06:59 83° SW 04:10:16 10° SE visible
22 Jul -3.5 20:41:48 10° SW 20:45:03 71° NW 20:48:19 10° NE visible
22 Jul -0.4 22:20:32 10° NW 22:22:02 12° NNW 22:23:32 10° N visible
23 Jul -0.8 21:27:16 10° WNW 21:29:37 18° NNW 21:32:00 10° NNE visible
24 Jul -1.6 20:34:23 10° W 20:37:17 29° NNW 20:40:12 10° NNE visible
25 Jul -0.4 21:21:07 10° NW 21:22:06 11° NNW 21:23:06 10° N visible
